Location: Auckland
(36.8670°S, 174.7670°E)
Time: 10:23:08
(UTC+12:00)

Tiros 1 despin weight - Pass Details

Date: 23 July 2019
Orbit: 594 x 642 km, 48.2° (Epoch: 20 August)

Event Time Altitude Azimuth Distance (km) Brightness Sun altitude
Rises 00:48:51 0° 274° (W) 2,841 - -72.8°
Reaches altitude 10° 00:51:21 10° 263° (W) 1,943 - -72.6°
Maximum altitude 00:55:18 30° 201° (SSW) 1,086 - -72.3°
Drops below altitude 10° 00:59:17 10° 138° (SE) 1,961 - -72.0°
Sets 01:01:50 0° 127° (SE) 2,873 - -71.8°
